Regional Weather Roundup
Issued by NWS

Home | Current Version | Previous Version | Graphics & Text | Print | Product List | Glossary On
Versions: 1 2 3 4 5 6 7 8 9 10 11 12 13 14 15 16 17 18 19 20 21 22 23 24 25 26 27 28 29 30 31 32 33 34 35 36 37 38 39 40 41 42 43 44 45 46 47 48 49 50
000
ASUS43 KIND 220209
RWRIN

WEATHER ROUNDUP FOR INDIANA
NATIONAL WEATHER SERVICE INDIANAPOLIS IN
900 PM EST SAT JAN 21 2017

NOTE: "FAIR" INDICATES FEW OR NO CLOUDS BELOW 12,000 FEET WITH NO
SIGNIFICANT WEATHER AND/OR OBSTRUCTIONS TO VISIBILITY.

* - STATION DOES NOT REPORT WEATHER SUCH AS PRECIPITATION OR FOG.

+ - STATION NOT QUALITY CONTROLLED BY THE NATIONAL WEATHER SERVICE.
    USE DATA WITH CAUTION...ESPECIALLY DEWPOINT AND RELATIVE
    HUMIDITY OBSERVATIONS.

INZ001>003-010>013-019-020-220300-
NORTHWEST INDIANA

CITY           SKY/WX    TMP DP  RH WIND       PRES   REMARKS
GARY /AIRPORT/ PTCLDY    43  41  93 CALM      29.57R
KNOX *+        PTCLDY    46  36  66 CALM      29.57R
LA PORTE +     CLEAR     44  44  99 CALM      29.58R FOG
MICHIGAN CITY+ CLEAR     46  46 100 CALM      29.58R
MONTICELLO +   CLEAR     51  47  87 S3        29.57R
VALPARAISO     FOG       46  46 100 CALM      29.58R VSB 3/4

$$

LMZ046-743>745-220300-
SOUTHERN LAKE MICHIGAN

STATION/POSITION TIME  TEMP    WIND        PRES    WAVE
                       AIR SEA DIR/SP/G            HT
                 (UTC) (F)     (DEG/KT/KT) (MB)    (FT)
BURNS HARBOR     0140   53     220/  6/  9 1002.0R
MICHIGAN CITY    0140   55     180/  6/  7   N/A

$$

INZ004-005-014>016-021>024-220300-
NORTH CENTRAL INDIANA

CITY           SKY/WX    TMP DP  RH WIND       PRES   REMARKS
GOSHEN         FOG       45  44  97 CALM      29.58S VSB 1/2
LOGANSPORT +   CLEAR     48  46  93 S6        29.59R
PERU/GRISSOM   PTCLDY    50  50 100 S6        29.57R
ROCHESTER +    FOG       45  45 100 CALM      29.59R VSB<1/4
SOUTH BEND     PTCLDY    45  44  97 CALM      29.58R
WARSAW +       CLEAR     50  50 100 CALM      29.59R

$$

INZ006>009-017-018-025>027-220300-
NORTHEAST INDIANA

CITY           SKY/WX    TMP DP  RH WIND       PRES   REMARKS
ANGOLA *+      CLEAR     48  46  93 CALM      29.59R
AUBURN +       CLEAR     50  46  87 CALM      29.60S FOG
FORT WAYNE     PTCLDY    51  48  89 S5        29.60R
HUNTINGTON +   PTCLDY    53  51  95 S3        29.59R
KENDALLVILLE + CLEAR     50  49  98 S5        29.59S

$$

INZ028-029-035-036-043>045-051>053-220300-
WEST CENTRAL INDIANA

CITY           SKY/WX    TMP DP  RH WIND       PRES   REMARKS
CRAWFORDSVL +  PTCLDY    51  51 100 S3        29.58S
GREENCASTLE +  PTCLDY    50  50 100 CALM      29.60R
LAFAYETTE      PTCLDY    47  47 100 CALM      29.57R
TERRE HAUTE    CLEAR     54  48  80 S7        29.58S

$$

INZ030>032-037>040-046>048-054>057-064-065-220300-
CENTRAL INDIANA

CITY           SKY/WX    TMP DP  RH WIND       PRES   REMARKS
CP ATTERBURY + MOCLDY    54  48  82 S5        29.61S
COLUMBUS       CLEAR     50  50 100 S6        29.61S
FISHERS *+     MOCLDY    52  52 100 S5        29.60R
FRANKFORT +    MOCLDY    52  49  91 CALM      29.61R
GREENWOOD *+   PTCLDY    56  51  85 S5        29.61R
INDIANAPOLIS   PTCLDY    56  49  77 S6        29.60R
-EAGLE CREEK   MOCLDY    57  49  74 CALM      29.59R
KOKOMO +       PTCLDY    52  50  93 S6        29.60R
MARION +       PTCLDY    50  48  93 S6        29.61R
MT COMFORT *+  CLOUDY    54  50  87 S5        29.61R
SHELBYVILLE    PTCLDY    53  48  83 S6        29.60R
ZIONSVILLE +   MOCLDY    54  49  85 S5        29.60R

$$

INZ033-034-041-042-049-050-058-059-220300-
EAST CENTRAL INDIANA

CITY           SKY/WX    TMP DP  RH WIND       PRES   REMARKS
MUNCIE         PTCLDY    56  52  86 S6        29.60S

$$

INZ060-061-067>069-081>083-085>088-220300-
SOUTHWEST INDIANA

CITY           SKY/WX    TMP DP  RH WIND       PRES   REMARKS
EVANSVILLE     PTCLDY    55  49  80 CALM      29.61R
HUNTINGBURG *+ CLOUDY    57  52  82 SE6       29.61S
WASHINGTON +   MOCLDY    53  51  92 SE5       29.59S

$$

INZ062-063-066-070>080-084-089>092-220300-
SOUTH CENTRAL AND SOUTHEAST INDIANA

CITY           SKY/WX    TMP DP  RH WIND       PRES   REMARKS
BLOOMINGTON    MOCLDY    56  48  74 SE6       29.60R
MADISON *+     PTCLDY    52  50  93 SE3       29.65R
NORTH VERNON + PTCLDY    55  55 100 SE3       29.63R
SEYMOUR +      MOCLDY    50  48  93 CALM      29.62R

$$




USA.gov is the U.S. government's official web portal to all federal, state and local government web resources and services.